Tracking 18980 objects as of 19-Feb-2018
HD Live streaming from Space Station
objects crossing your sky now

FENGYUN 1C DEB

Track FENGYUN 1C DEB now!
10-day predictions


NORAD ID: 31718
Int'l Code: 1999-025CDR
Perigee: 535.5 km
Apogee: 602.7 km
Inclination: 96.7 °
Period: 95.9 minutes
Semi major axis: 6940 km
RCS: 0.0022 m2 (small)
Launch date: May 10, 1999
Source: People's Republic of China (PRC)
Launch site: Taiyaun Space Center, China (TSC)

Note: This is SATELLITE DEBRIS
aabbcc
Your satellite tracking list
Your tracking list is empty




NASA's NSSDC Master Catalog

Two Line Element Set (TLE):
1 31718U 99025CDR 18027.05600487  .00007000  00000-0  53006-3 0  9997
2 31718  96.6575 321.5705 0048405 204.2810 155.6136 15.01596092566700
Source of the keplerian elements: AFSPC